,,,PA_Meas_PMT16A,,PR_Meas_QMR101_102,,RH_Meas_QMH101,,SR_Meas_QMS101,,TA_Meas_QMH101,,GenWind,,GenWind,
date,time,status,PA,status,PR,status,RH,status,SR,status,TA,status,DirAvg,status,SpdAvg,
2010-01-06, 00:00:04,VALID,1000.02,VALID,0,VALID,93.1195,VALID,0,VALID,23.4103,VALID,125,VALID,1.12734,
2010-01-06, 00:01:04,VALID,999.994,VALID,0,VALID,93.0814,VALID,0,VALID,23.4103,VALID,121,VALID,0.865234,
2010-01-06, 00:02:04,VALID,999.994,VALID,0,VALID,92.9288,VALID,0,VALID,23.3908,VALID,118,VALID,1.34844,
2010-01-06, 00:03:04,VALID,999.994,VALID,0,VALID,92.8754,VALID,0,VALID,23.3695,VALID,123,VALID,1.0168,
2010-01-06, 00:04:04,VALID,999.968,VALID,0,VALID,92.8143,VALID,0,VALID,23.3908,VALID,118,VALID,0.960547,
2010-01-06, 00:05:04,VALID,999.991,VALID,0,VALID,92.7914,VALID,0,VALID,23.389,VALID,117,VALID,0.791016,
2010-01-06, 00:06:04,VALID,999.969,VALID,0,VALID,92.8067,VALID,0,VALID,23.4103,VALID,117,VALID,0.336328,
2010-01-06, 00:07:04,VALID,999.979,VALID,0,VALID,92.822,VALID,0,VALID,23.4298,VALID,117,VALID,0.405469,
2010-01-06, 00:08:04,VALID,999.977,VALID,0,VALID,92.8067,VALID,0,VALID,23.4298,VALID,102,VALID,0.602344,
2010-01-06, 00:09:04,VALID,999.934,VALID,0,VALID,92.7991,VALID,0,VALID,23.4085,VALID,96,VALID,0.551172,
2010-01-06, 00:10:04,VALID,999.931,VALID,0,VALID,92.8067,VALID,0,VALID,23.4085,VALID,96,VALID,0.329688,
2010-01-06, 00:11:04,VALID,999.93,VALID,0,VALID,92.7762,VALID,0,VALID,23.4085,VALID,96,VALID,0.209375,
2010-01-06, 00:12:04,VALID,999.93,VALID,0,VALID,92.7762,VALID,0,VALID,23.4298,VALID,96,VALID,0.0496094,
2010-01-06, 00:13:04,VALID,999.906,VALID,0,VALID,92.7762,VALID,0,VALID,23.4067,VALID,96,VALID,0.178516,
2010-01-06, 00:14:04,VALID,999.865,VALID,0,VALID,92.7914,VALID,0,VALID,23.428,VALID,96,VALID,0,
2010-01-06, 00:15:04,VALID,999.837,VALID,0,VALID,92.7838,VALID,0,VALID,23.428,VALID,96,VALID,0.00429688,
2010-01-06, 00:16:04,VALID,999.878,VALID,0,VALID,92.7457,VALID,0,VALID,23.4085,VALID,96,VALID,0.113281,
2010-01-06, 00:17:04,VALID,999.87,VALID,0,VALID,92.7609,VALID,0,VALID,23.428,VALID,96,VALID,0,
2010-01-06, 00:18:04,VALID,999.889,VALID,0,VALID,92.7533,VALID,0,VALID,23.4085,VALID,96,VALID,0,
2010-01-06, 00:19:04,VALID,999.89,VALID,0,VALID,92.7838,VALID,0,VALID,23.428,VALID,96,VALID,0,
2010-01-06, 00:20:04,VALID,999.893,VALID,0,VALID,92.7609,VALID,0,VALID,23.389,VALID,96,VALID,0,
2010-01-06, 00:21:04,VALID,999.884,VALID,0,VALID,92.7991,VALID,0,VALID,23.389,VALID,96,VALID,0,
2010-01-06, 00:22:04,VALID,999.893,VALID,0,VALID,92.8448,VALID,0,VALID,23.4085,VALID,96,VALID,0,
2010-01-06, 00:23:04,VALID,999.896,VALID,0,VALID,92.8601,VALID,0,VALID,23.4067,VALID,96,VALID,0.16875,
2010-01-06, 00:24:04,VALID,999.902,VALID,0,VALID,92.883,VALID,0,VALID,23.4263,VALID,96,VALID,0.239063,
2010-01-06, 00:25:04,VALID,999.917,VALID,0,VALID,92.9059,VALID,0,VALID,23.4671,VALID,198,VALID,0.168359,
2010-01-06, 00:26:04,VALID,999.869,VALID,0,VALID,92.883,VALID,0,VALID,23.4671,VALID,198,VALID,0.00664063,
2010-01-06, 00:27:04,VALID,999.885,VALID,0,VALID,92.8525,VALID,0,VALID,23.4671,VALID,198,VALID,0,
2010-01-06, 00:28:04,VALID,999.892,VALID,0,VALID,92.8296,VALID,0,VALID,23.4493,VALID,198,VALID,0,
2010-01-06, 00:29:04,VALID,999.86,VALID,0,VALID,92.822,VALID,0,VALID,23.4688,VALID,198,VALID,0,
2010-01-06, 00:30:04,VALID,999.891,VALID,0,VALID,92.8525,VALID,0,VALID,23.4671,VALID,198,VALID,0,
2010-01-06, 00:31:04,VALID,999.833,VALID,0,VALID,92.8754,VALID,0,VALID,23.4866,VALID,199,VALID,0.166016,
2010-01-06, 00:32:04,VALID,999.825,VALID,0,VALID,92.8677,VALID,0,VALID,23.4884,VALID,222,VALID,0.324219,
2010-01-06, 00:33:04,VALID,999.765,VALID,0,VALID,92.8677,VALID,0,VALID,23.4671,VALID,222,VALID,0.249219,
2010-01-06, 00:34:04,VALID,999.763,VALID,0,VALID,92.8601,VALID,0,VALID,23.4884,VALID,222,VALID,0.271094,
2010-01-06, 00:35:04,VALID,999.752,VALID,0,VALID,92.8754,VALID,0,VALID,23.4475,VALID,222,VALID,0.176172,
2010-01-06, 00:36:04,VALID,999.75,VALID,0,VALID,92.8525,VALID,0,VALID,23.4475,VALID,222,VALID,0.0140625,
2010-01-06, 00:37:04,VALID,999.741,VALID,0,VALID,92.883,VALID,0,VALID,23.428,VALID,222,VALID,0,
2010-01-06, 00:38:04,VALID,999.706,VALID,0,VALID,92.944,VALID,0,VALID,23.4493,VALID,222,VALID,0.331641,
2010-01-06, 00:39:04,VALID,999.711,VALID,0,VALID,92.944,VALID,0,VALID,23.428,VALID,229,VALID,0.486719,
2010-01-06, 00:40:04,VALID,999.687,VALID,0,VALID,92.9669,VALID,0,VALID,23.428,VALID,298,VALID,0.63125,
2010-01-06, 00:41:04,VALID,999.705,VALID,0,VALID,93.0051,VALID,0,VALID,23.428,VALID,306,VALID,0.257422,
2010-01-06, 00:42:04,VALID,999.708,VALID,0,VALID,93.0127,VALID,0,VALID,23.4493,VALID,306,VALID,0,
2010-01-06, 00:43:04,VALID,999.716,VALID,0,VALID,93.0432,VALID,0,VALID,23.4475,VALID,306,VALID,0,
2010-01-06, 00:44:04,VALID,999.713,VALID,0,VALID,93.0737,VALID,0,VALID,23.4263,VALID,306,VALID,0,
2010-01-06, 00:45:04,VALID,999.664,VALID,0,VALID,93.1119,VALID,0,VALID,23.4263,VALID,306,VALID,0,
2010-01-06, 00:46:04,VALID,999.653,VALID,0,VALID,93.089,VALID,0,VALID,23.428,VALID,336,VALID,0,
2010-01-06, 00:47:04,VALID,999.65,VALID,0,VALID,93.089,VALID,0,VALID,23.389,VALID,338,VALID,0,
2010-01-06, 00:48:04,VALID,999.626,VALID,0,VALID,93.0814,VALID,0,VALID,23.3482,VALID,345,VALID,0.0785156,
2010-01-06, 00:49:04,VALID,999.612,VALID,0,VALID,93.1119,VALID,0,VALID,23.3305,VALID,30,VALID,0.624219,
2010-01-06, 00:50:04,VALID,999.612,VALID,0,VALID,93.1577,VALID,0,VALID,23.3092,VALID,37,VALID,0.459766,
2010-01-06, 00:51:04,VALID,999.557,VALID,0,VALID,93.2187,VALID,0,VALID,23.3305,VALID,39,VALID,0.445703,
2010-01-06, 00:52:04,VALID,999.533,VALID,0,VALID,93.2416,VALID,0,VALID,23.35,VALID,47,VALID,0.188281,
2010-01-06, 00:53:04,VALID,999.535,VALID,0,VALID,93.2721,VALID,0,VALID,23.3287,VALID,47,VALID,0,
2010-01-06, 00:54:04,VALID,999.484,VALID,0,VALID,93.3026,VALID,0,VALID,23.3305,VALID,47,VALID,0,
2010-01-06, 00:55:04,VALID,999.461,VALID,0,VALID,93.3103,VALID,0,VALID,23.3305,VALID,47,VALID,0,
2010-01-06, 00:56:04,VALID,999.432,VALID,0,VALID,93.3179,VALID,0,VALID,23.3092,VALID,47,VALID,0,
2010-01-06, 00:57:04,VALID,999.444,VALID,0,VALID,93.3179,VALID,0,VALID,23.2897,VALID,47,VALID,0,
2010-01-06, 00:58:04,VALID,999.4,VALID,0,VALID,93.3179,VALID,0,VALID,23.2915,VALID,47,VALID,0,
2010-01-06, 00:59:04,VALID,999.376,VALID,0,VALID,93.3331,VALID,0,VALID,23.2915,VALID,47,VALID,0,
2010-01-06, 01:00:04,VALID,999.36,VALID,0,VALID,93.356,VALID,0,VALID,23.2915,VALID,47,VALID,0,
2010-01-06, 01:01:04,VALID,999.327,VALID,0,VALID,93.3789,VALID,0,VALID,23.311,VALID,47,VALID,0,
2010-01-06, 01:02:04,VALID,999.311,VALID,0,VALID,93.4476,VALID,0,VALID,23.3305,VALID,47,VALID,0,
2010-01-06, 01:03:04,VALID,999.296,VALID,0,VALID,93.4552,VALID,0,VALID,23.3305,VALID,47,VALID,0,
2010-01-06, 01:04:04,VALID,999.283,VALID,0,VALID,93.4857,VALID,0,VALID,23.3305,VALID,47,VALID,0,
2010-01-06, 01:05:04,VALID,999.278,VALID,0,VALID,93.4934,VALID,0,VALID,23.311,VALID,72,VALID,0,
2010-01-06, 01:06:04,VALID,999.245,VALID,0,VALID,93.4857,VALID,0,VALID,23.3305,VALID,81,VALID,0,
2010-01-06, 01:07:04,VALID,999.295,VALID,0,VALID,93.4781,VALID,0,VALID,23.311,VALID,81,VALID,0.392188,
2010-01-06, 01:08:04,VALID,999.264,VALID,0,VALID,93.4705,VALID,0,VALID,23.3305,VALID,81,VALID,0,
2010-01-06, 01:09:04,VALID,999.246,VALID,0,VALID,93.4857,VALID,0,VALID,23.3305,VALID,81,VALID,0,
2010-01-06, 01:10:04,VALID,999.23,VALID,0,VALID,93.501,VALID,0,VALID,23.311,VALID,81,VALID,0,
2010-01-06, 01:11:04,VALID,999.232,VALID,0,VALID,93.4781,VALID,0,VALID,23.311,VALID,81,VALID,0,
2010-01-06, 01:12:04,VALID,999.207,VALID,0,VALID,93.4552,VALID,0,VALID,23.311,VALID,81,VALID,0,
2010-01-06, 01:13:04,VALID,999.206,VALID,0,VALID,93.4628,VALID,0,VALID,23.311,VALID,81,VALID,0,
2010-01-06, 01:14:04,VALID,999.188,VALID,0,VALID,93.4705,VALID,0,VALID,23.311,VALID,81,VALID,0,
2010-01-06, 01:15:04,VALID,999.183,VALID,0,VALID,93.4781,VALID,0,VALID,23.311,VALID,81,VALID,0,
2010-01-06, 01:16:04,VALID,999.154,VALID,0,VALID,93.4781,VALID,0,VALID,23.311,VALID,81,VALID,0,
2010-01-06, 01:17:04,VALID,999.151,VALID,0,VALID,93.4857,VALID,0,VALID,23.311,VALID,81,VALID,0,
2010-01-06, 01:18:04,VALID,999.164,VALID,0,VALID,93.4781,VALID,0,VALID,23.311,VALID,81,VALID,0,
2010-01-06, 01:19:04,VALID,999.149,VALID,0,VALID,93.4705,VALID,0,VALID,23.2915,VALID,81,VALID,0,
2010-01-06, 01:20:04,VALID,999.119,VALID,0,VALID,93.4781,VALID,0,VALID,23.3323,VALID,81,VALID,0,
2010-01-06, 01:21:04,VALID,999.107,VALID,0,VALID,93.4781,VALID,0,VALID,23.311,VALID,81,VALID,0,
2010-01-06, 01:22:04,VALID,999.099,VALID,0,VALID,93.4705,VALID,0,VALID,23.311,VALID,81,VALID,0,
2010-01-06, 01:23:04,VALID,999.101,VALID,0,VALID,93.4628,VALID,0,VALID,23.2915,VALID,81,VALID,0,
2010-01-06, 01:24:04,VALID,999.079,VALID,0,VALID,93.44,VALID,0,VALID,23.2719,VALID,81,VALID,0,
2010-01-06, 01:25:04,VALID,999.058,VALID,0,VALID,93.44,VALID,0,VALID,23.2524,VALID,81,VALID,0,
2010-01-06, 01:26:04,VALID,999.053,VALID,0,VALID,93.4552,VALID,0,VALID,23.2329,VALID,81,VALID,0,
2010-01-06, 01:27:04,VALID,999.023,VALID,0,VALID,93.4476,VALID,0,VALID,23.2329,VALID,81,VALID,0,
2010-01-06, 01:28:04,VALID,998.982,VALID,0,VALID,93.44,VALID,0,VALID,23.1921,VALID,81,VALID,0,
2010-01-06, 01:29:04,VALID,999,VALID,0,VALID,93.4323,VALID,0,VALID,23.1939,VALID,81,VALID,0,
2010-01-06, 01:30:04,VALID,998.943,VALID,0,VALID,93.44,VALID,0.112286,VALID,23.1726,VALID,81,VALID,0,
2010-01-06, 01:31:04,VALID,998.92,VALID,0,VALID,93.4628,VALID,0,VALID,23.1531,VALID,81,VALID,0,
2010-01-06, 01:32:04,VALID,998.962,VALID,0,VALID,93.4552,VALID,0.112286,VALID,23.1744,VALID,81,VALID,0,
2010-01-06, 01:33:04,VALID,998.952,VALID,0,VALID,93.4781,VALID,0,VALID,23.1141,VALID,81,VALID,0,
2010-01-06, 01:34:04,VALID,998.945,VALID,0,VALID,93.4934,VALID,0,VALID,23.1549,VALID,81,VALID,0,
2010-01-06, 01:35:04,VALID,998.97,VALID,0,VALID,93.5086,VALID,0,VALID,23.1354,VALID,81,VALID,0,
2010-01-06, 01:36:04,VALID,998.984,VALID,0,VALID,93.5468,VALID,0,VALID,23.0946,VALID,81,VALID,0,
2010-01-06, 01:37:04,VALID,998.996,VALID,0,VALID,93.5773,VALID,0,VALID,23.1354,VALID,81,VALID,0,
2010-01-06, 01:38:04,VALID,999.013,VALID,0,VALID,93.5926,VALID,0,VALID,23.1141,VALID,81,VALID,0,
2010-01-06, 01:39:04,VALID,999.032,VALID,0,VALID,93.646,VALID,0,VALID,23.1354,VALID,81,VALID,0,
2010-01-06, 01:40:04,VALID,999.002,VALID,0,VALID,93.646,VALID,0,VALID,23.1354,VALID,81,VALID,0,
2010-01-06, 01:41:04,VALID,999.019,VALID,0,VALID,93.6612,VALID,0,VALID,23.1141,VALID,81,VALID,0,
2010-01-06, 01:42:04,VALID,999.03,VALID,0,VALID,93.6688,VALID,0,VALID,23.1336,VALID,81,VALID,0,
2010-01-06, 01:43:04,VALID,998.984,VALID,0,VALID,93.6536,VALID,0,VALID,23.1354,VALID,81,VALID,0,
2010-01-06, 01:44:04,VALID,999.005,VALID,0,VALID,93.6841,VALID,0,VALID,23.0946,VALID,81,VALID,0,
2010-01-06, 01:45:04,VALID,999.01,VALID,0,VALID,93.7299,VALID,0.112286,VALID,23.1336,VALID,81,VALID,0,
2010-01-06, 01:46:04,VALID,998.981,VALID,0,VALID,93.7451,VALID,0,VALID,23.1549,VALID,81,VALID,0,
2010-01-06, 01:47:04,VALID,998.991,VALID,0,VALID,93.7451,VALID,0,VALID,23.1744,VALID,81,VALID,0,
2010-01-06, 01:48:04,VALID,998.963,VALID,0,VALID,93.7528,VALID,0.112286,VALID,23.1531,VALID,81,VALID,0,
2010-01-06, 01:49:04,VALID,998.957,VALID,0,VALID,93.7451,VALID,0,VALID,23.1336,VALID,81,VALID,0,
2010-01-06, 01:50:04,VALID,998.95,VALID,0,VALID,93.7451,VALID,0,VALID,23.1531,VALID,81,VALID,0,
2010-01-06, 01:51:04,VALID,998.933,VALID,0,VALID,93.7528,VALID,0,VALID,23.1744,VALID,81,VALID,0,
2010-01-06, 01:52:04,VALID,998.927,VALID,0,VALID,93.7451,VALID,0,VALID,23.1549,VALID,81,VALID,0,
2010-01-06, 01:53:04,VALID,998.919,VALID,0,VALID,93.7757,VALID,0.112286,VALID,23.1336,VALID,81,VALID,0,
2010-01-06, 01:54:04,VALID,998.946,VALID,0,VALID,93.7909,VALID,0,VALID,23.1336,VALID,81,VALID,0,
2010-01-06, 01:55:04,VALID,998.97,VALID,0,VALID,93.768,VALID,0,VALID,23.1531,VALID,81,VALID,0,
2010-01-06, 01:56:04,VALID,998.964,VALID,0,VALID,93.7985,VALID,0,VALID,23.1336,VALID,81,VALID,0,
2010-01-06, 01:57:04,VALID,998.987,VALID,0,VALID,93.8062,VALID,0,VALID,23.1531,VALID,81,VALID,0,
2010-01-06, 01:58:04,VALID,998.952,VALID,0,VALID,93.7985,VALID,0,VALID,23.1549,VALID,81,VALID,0,
2010-01-06, 01:59:04,VALID,998.922,VALID,0,VALID,93.7833,VALID,0,VALID,23.1531,VALID,81,VALID,0,
2010-01-06, 02:00:04,VALID,998.925,VALID,0,VALID,93.7909,VALID,0,VALID,23.1531,VALID,81,VALID,0,
2010-01-06, 02:01:04,VALID,998.917,VALID,0,VALID,93.7985,VALID,0,VALID,23.1336,VALID,81,VALID,0,
2010-01-06, 02:02:04,VALID,998.905,VALID,0,VALID,93.7833,VALID,0,VALID,23.1336,VALID,81,VALID,0,
2010-01-06, 02:03:04,VALID,998.892,VALID,0,VALID,93.7985,VALID,0,VALID,23.1549,VALID,81,VALID,0,
2010-01-06, 02:04:04,VALID,998.896,VALID,0,VALID,93.7909,VALID,0,VALID,23.1141,VALID,81,VALID,0,
2010-01-06, 02:05:04,VALID,998.881,VALID,0,VALID,93.768,VALID,0,VALID,23.1549,VALID,81,VALID,0,
2010-01-06, 02:06:04,VALID,998.833,VALID,0,VALID,93.7757,VALID,0,VALID,23.1354,VALID,81,VALID,0,
2010-01-06, 02:07:04,VALID,998.819,VALID,0,VALID,93.7833,VALID,0,VALID,23.1141,VALID,81,VALID,0,
2010-01-06, 02:08:04,VALID,998.805,VALID,0,VALID,93.7985,VALID,0,VALID,23.1141,VALID,80,VALID,0,
2010-01-06, 02:09:04,VALID,998.78,VALID,0,VALID,93.7833,VALID,0,VALID,23.1141,VALID,80,VALID,0,
2010-01-06, 02:10:04,VALID,998.801,VALID,0,VALID,93.8062,VALID,0.112286,VALID,23.1141,VALID,80,VALID,0,
2010-01-06, 02:11:04,VALID,998.8,VALID,0,VALID,93.8138,VALID,0.112286,VALID,23.1141,VALID,80,VALID,0,
2010-01-06, 02:12:04,VALID,998.815,VALID,0,VALID,93.7909,VALID,0,VALID,23.1336,VALID,79,VALID,0,
2010-01-06, 02:13:04,VALID,998.781,VALID,0,VALID,93.7985,VALID,0,VALID,23.1159,VALID,72,VALID,0,
2010-01-06, 02:14:04,VALID,998.771,VALID,0,VALID,93.8138,VALID,0,VALID,23.1371,VALID,72,VALID,0,
2010-01-06, 02:15:04,VALID,998.72,VALID,0,VALID,93.8214,VALID,0,VALID,23.1159,VALID,72,VALID,0,
2010-01-06, 02:16:04,VALID,998.722,VALID,0,VALID,93.7909,VALID,0,VALID,23.0964,VALID,72,VALID,0,
2010-01-06, 02:17:04,VALID,998.697,VALID,0,VALID,93.7909,VALID,0,VALID,23.0964,VALID,72,VALID,0,
2010-01-06, 02:18:04,VALID,998.656,VALID,0,VALID,93.8291,VALID,0,VALID,23.1159,VALID,72,VALID,0,
2010-01-06, 02:19:04,VALID,998.646,VALID,0,VALID,93.8367,VALID,0,VALID,23.1549,VALID,72,VALID,0,
2010-01-06, 02:20:04,VALID,998.644,VALID,0,VALID,93.8291,VALID,0,VALID,23.1549,VALID,72,VALID,0,
2010-01-06, 02:21:04,VALID,998.653,VALID,0,VALID,93.8443,VALID,0,VALID,23.1549,VALID,68,VALID,0,
2010-01-06, 02:22:04,VALID,998.653,VALID,0,VALID,93.7909,VALID,0,VALID,23.1566,VALID,45,VALID,0,
2010-01-06, 02:23:04,VALID,998.629,VALID,0,VALID,93.8138,VALID,0,VALID,23.1354,VALID,36,VALID,0,
2010-01-06, 02:24:04,VALID,998.619,VALID,0,VALID,93.8062,VALID,0,VALID,23.1371,VALID,36,VALID,0,
2010-01-06, 02:25:04,VALID,998.598,VALID,0,VALID,93.8138,VALID,0,VALID,23.1176,VALID,36,VALID,0,
2010-01-06, 02:26:04,VALID,998.629,VALID,0,VALID,93.8138,VALID,0,VALID,23.0964,VALID,36,VALID,0,
2010-01-06, 02:27:04,VALID,998.63,VALID,0,VALID,93.8291,VALID,0,VALID,23.0964,VALID,36,VALID,0,
2010-01-06, 02:28:04,VALID,998.619,VALID,0,VALID,93.8138,VALID,0,VALID,23.1141,VALID,36,VALID,0,
2010-01-06, 02:29:04,VALID,998.617,VALID,0,VALID,93.8214,VALID,0.112286,VALID,23.1141,VALID,36,VALID,0,
2010-01-06, 02:30:04,VALID,998.602,VALID,0,VALID,93.8291,VALID,0,VALID,23.0946,VALID,36,VALID,0,
2010-01-06, 02:31:04,VALID,998.632,VALID,0,VALID,93.8291,VALID,0,VALID,23.0946,VALID,36,VALID,0,
2010-01-06, 02:32:04,VALID,998.619,VALID,0,VALID,93.8596,VALID,0,VALID,23.0946,VALID,36,VALID,0,
2010-01-06, 02:33:04,VALID,998.627,VALID,0,VALID,93.8443,VALID,0,VALID,23.1159,VALID,36,VALID,0,
2010-01-06, 02:34:04,VALID,998.618,VALID,0,VALID,93.8367,VALID,0,VALID,23.0946,VALID,36,VALID,0,
2010-01-06, 02:35:04,VALID,998.627,VALID,0,VALID,93.8443,VALID,0,VALID,23.0946,VALID,36,VALID,0,
2010-01-06, 02:36:04,VALID,998.61,VALID,0,VALID,93.8367,VALID,0.112286,VALID,23.0964,VALID,36,VALID,0,
2010-01-06, 02:37:04,VALID,998.615,VALID,0,VALID,93.852,VALID,0,VALID,23.0751,VALID,36,VALID,0,
2010-01-06, 02:38:04,VALID,998.582,VALID,0,VALID,93.8443,VALID,0,VALID,23.0751,VALID,36,VALID,0,
2010-01-06, 02:39:04,VALID,998.581,VALID,0,VALID,93.8443,VALID,0,VALID,23.1159,VALID,36,VALID,0,
2010-01-06, 02:40:04,VALID,998.533,VALID,0,VALID,93.8596,VALID,0,VALID,23.1141,VALID,36,VALID,0,
2010-01-06, 02:41:04,VALID,998.545,VALID,0,VALID,93.8672,VALID,0,VALID,23.1159,VALID,36,VALID,0,
2010-01-06, 02:42:04,VALID,998.524,VALID,0,VALID,93.8748,VALID,0.112286,VALID,23.1141,VALID,36,VALID,0,
2010-01-06, 02:43:04,VALID,998.522,VALID,0,VALID,93.8825,VALID,0.112286,VALID,23.1354,VALID,36,VALID,0,
2010-01-06, 02:44:04,VALID,998.498,VALID,0,VALID,93.8748,VALID,0,VALID,23.1549,VALID,36,VALID,0,
2010-01-06, 02:45:04,VALID,998.508,VALID,0,VALID,93.8977,VALID,0,VALID,23.1354,VALID,36,VALID,0,
2010-01-06, 02:46:04,VALID,998.482,VALID,0,VALID,93.8977,VALID,0.112286,VALID,23.1336,VALID,36,VALID,0,
2010-01-06, 02:47:04,VALID,998.505,VALID,0,VALID,93.913,VALID,0,VALID,23.1531,VALID,36,VALID,0,
2010-01-06, 02:48:04,VALID,998.511,VALID,0,VALID,93.8825,VALID,0,VALID,23.1531,VALID,44,VALID,0,
2010-01-06, 02:49:04,VALID,998.507,VALID,0,VALID,93.9054,VALID,0.112286,VALID,23.1531,VALID,45,VALID,0,
2010-01-06, 02:50:04,VALID,998.538,VALID,0,VALID,93.8825,VALID,0,VALID,23.1744,VALID,45,VALID,0,
2010-01-06, 02:51:04,VALID,998.502,VALID,0,VALID,93.8901,VALID,0,VALID,23.1531,VALID,45,VALID,0,
2010-01-06, 02:52:04,VALID,998.522,VALID,0,VALID,93.8672,VALID,0.112286,VALID,23.1531,VALID,45,VALID,0,
2010-01-06, 02:53:04,VALID,998.499,VALID,0,VALID,93.8596,VALID,0.112286,VALID,23.1336,VALID,45,VALID,0,
2010-01-06, 02:54:04,VALID,998.511,VALID,0,VALID,93.8672,VALID,0,VALID,23.1336,VALID,45,VALID,0,
2010-01-06, 02:55:04,VALID,998.516,VALID,0,VALID,93.852,VALID,0,VALID,23.1549,VALID,45,VALID,0,
2010-01-06, 02:56:04,VALID,998.474,VALID,0,VALID,93.8672,VALID,0,VALID,23.1141,VALID,45,VALID,0,
2010-01-06, 02:57:04,VALID,998.467,VALID,0,VALID,93.8443,VALID,0.112286,VALID,23.1141,VALID,45,VALID,0,
2010-01-06, 02:58:04,VALID,998.451,VALID,0,VALID,93.8367,VALID,0,VALID,23.0946,VALID,45,VALID,0,
2010-01-06, 02:59:04,VALID,998.452,VALID,0,VALID,93.852,VALID,0,VALID,23.0751,VALID,45,VALID,0,
2010-01-06, 03:00:04,VALID,998.454,VALID,0,VALID,93.8596,VALID,0,VALID,23.0751,VALID,45,VALID,0,
2010-01-06, 03:01:04,VALID,998.461,VALID,0,VALID,93.8825,VALID,0,VALID,23.0946,VALID,45,VALID,0,
2010-01-06, 03:02:04,VALID,998.502,VALID,0,VALID,93.8825,VALID,0,VALID,23.1141,VALID,45,VALID,0,
2010-01-06, 03:03:04,VALID,998.47,VALID,0,VALID,93.8748,VALID,0,VALID,23.1141,VALID,45,VALID,0,
2010-01-06, 03:04:04,VALID,998.461,VALID,0,VALID,93.8672,VALID,0,VALID,23.1159,VALID,45,VALID,0,
2010-01-06, 03:05:04,VALID,998.465,VALID,0,VALID,93.8596,VALID,0.112286,VALID,23.0946,VALID,45,VALID,0,
2010-01-06, 03:06:04,VALID,998.485,VALID,0,VALID,93.8748,VALID,0,VALID,23.0946,VALID,45,VALID,0,
2010-01-06, 03:07:04,VALID,998.472,VALID,0,VALID,93.8443,VALID,0,VALID,23.1159,VALID,45,VALID,0,
2010-01-06, 03:08:04,VALID,998.488,VALID,0,VALID,93.8825,VALID,0.112286,VALID,23.0751,VALID,45,VALID,0,
2010-01-06, 03:09:04,VALID,998.481,VALID,0,VALID,93.8825,VALID,0,VALID,23.0964,VALID,45,VALID,0,
2010-01-06, 03:10:04,VALID,998.493,VALID,0,VALID,93.8977,VALID,0,VALID,23.0964,VALID,45,VALID,0,
2010-01-06, 03:11:04,VALID,998.498,VALID,0,VALID,93.8901,VALID,0,VALID,23.0946,VALID,71,VALID,0,
2010-01-06, 03:12:04,VALID,998.517,VALID,0,VALID,93.9206,VALID,0,VALID,23.1141,VALID,83,VALID,0,
2010-01-06, 03:13:04,VALID,998.52,VALID,0,VALID,93.8901,VALID,0,VALID,23.1141,VALID,86,VALID,0,
2010-01-06, 03:14:04,VALID,998.495,VALID,0,VALID,93.8977,VALID,0.112286,VALID,23.1141,VALID,86,VALID,0,
2010-01-06, 03:15:04,VALID,998.528,VALID,0,VALID,93.8901,VALID,0,VALID,23.1141,VALID,86,VALID,0,
2010-01-06, 03:16:04,VALID,998.499,VALID,0,VALID,93.913,VALID,0,VALID,23.1141,VALID,86,VALID,0,
2010-01-06, 03:17:04,VALID,998.51,VALID,0,VALID,93.9283,VALID,0,VALID,23.1141,VALID,86,VALID,0,
2010-01-06, 03:18:04,VALID,998.507,VALID,0,VALID,93.913,VALID,0,VALID,23.1549,VALID,86,VALID,0,
2010-01-06, 03:19:04,VALID,998.532,VALID,0,VALID,93.9054,VALID,0,VALID,23.1336,VALID,86,VALID,0,
2010-01-06, 03:20:04,VALID,998.545,VALID,0,VALID,93.8825,VALID,0.112286,VALID,23.1354,VALID,86,VALID,0,
2010-01-06, 03:21:04,VALID,998.545,VALID,0,VALID,93.913,VALID,0,VALID,23.1354,VALID,86,VALID,0,
2010-01-06, 03:22:04,VALID,998.541,VALID,0,VALID,93.8825,VALID,0,VALID,23.1141,VALID,86,VALID,0,
2010-01-06, 03:23:04,VALID,998.539,VALID,0,VALID,93.9054,VALID,0,VALID,23.0946,VALID,86,VALID,0,
2010-01-06, 03:24:04,VALID,998.486,VALID,0,VALID,93.8901,VALID,0.112286,VALID,23.0751,VALID,86,VALID,0,
2010-01-06, 03:25:04,VALID,998.487,VALID,0,VALID,93.8672,VALID,0.112286,VALID,23.0751,VALID,86,VALID,0,
2010-01-06, 03:26:04,VALID,998.521,VALID,0,VALID,93.8596,VALID,0.112286,VALID,23.0769,VALID,86,VALID,0,
2010-01-06, 03:27:04,VALID,998.508,VALID,0,VALID,93.8596,VALID,0.112286,VALID,23.0556,VALID,86,VALID,0,
2010-01-06, 03:28:04,VALID,998.49,VALID,0,VALID,93.8596,VALID,0,VALID,23.0591,VALID,86,VALID,0,
2010-01-06, 03:29:04,VALID,998.507,VALID,0,VALID,93.852,VALID,0,VALID,23.0378,VALID,86,VALID,0,
2010-01-06, 03:30:04,VALID,998.506,VALID,0,VALID,93.8901,VALID,0,VALID,23.0378,VALID,86,VALID,0,
2010-01-06, 03:31:04,VALID,998.512,VALID,0,VALID,93.8977,VALID,0,VALID,23.0378,VALID,86,VALID,0,
2010-01-06, 03:32:04,VALID,998.515,VALID,0,VALID,93.8672,VALID,0,VALID,23.0396,VALID,76,VALID,0,
2010-01-06, 03:33:04,VALID,998.547,VALID,0,VALID,93.913,VALID,0,VALID,23.0378,VALID,49,VALID,0,
2010-01-06, 03:34:04,VALID,998.555,VALID,0,VALID,93.9511,VALID,0,VALID,23.0573,VALID,41,VALID,0,
2010-01-06, 03:35:04,VALID,998.562,VALID,0,VALID,93.9435,VALID,0,VALID,23.0573,VALID,38,VALID,0,
2010-01-06, 03:36:04,VALID,998.606,VALID,0,VALID,93.9359,VALID,0,VALID,23.0769,VALID,38,VALID,0,
2010-01-06, 03:37:04,VALID,998.637,VALID,0,VALID,93.9206,VALID,0,VALID,23.0573,VALID,38,VALID,0,
2010-01-06, 03:38:04,VALID,998.683,VALID,0,VALID,93.8672,VALID,0,VALID,23.0378,VALID,38,VALID,0,
2010-01-06, 03:39:04,VALID,998.657,VALID,0,VALID,93.8672,VALID,0,VALID,22.9793,VALID,35,VALID,0,
2010-01-06, 03:40:04,VALID,998.656,VALID,0,VALID,93.8825,VALID,0,VALID,22.9615,VALID,32,VALID,0,
2010-01-06, 03:41:04,VALID,998.661,VALID,0,VALID,93.8596,VALID,0,VALID,22.9403,VALID,29,VALID,0,
2010-01-06, 03:42:04,VALID,998.659,VALID,0,VALID,93.8748,VALID,0,VALID,22.942,VALID,29,VALID,0,
2010-01-06, 03:43:04,VALID,998.627,VALID,0,VALID,93.8825,VALID,0,VALID,22.919,VALID,29,VALID,0,
2010-01-06, 03:44:04,VALID,998.641,VALID,0,VALID,93.8977,VALID,0,VALID,22.8995,VALID,29,VALID,0,
2010-01-06, 03:45:04,VALID,998.655,VALID,0,VALID,93.8977,VALID,0,VALID,22.8995,VALID,29,VALID,0,
2010-01-06, 03:46:04,VALID,998.641,VALID,0,VALID,93.8672,VALID,0.112286,VALID,22.88,VALID,29,VALID,0,
2010-01-06, 03:47:04,VALID,998.669,VALID,0,VALID,93.8596,VALID,0,VALID,22.8623,VALID,29,VALID,0,
2010-01-06, 03:48:04,VALID,998.667,VALID,0,VALID,93.8748,VALID,0,VALID,22.8215,VALID,29,VALID,0,
2010-01-06, 03:49:04,VALID,998.682,VALID,0,VALID,93.8443,VALID,0,VALID,22.8232,VALID,29,VALID,0,
2010-01-06, 03:50:04,VALID,998.673,VALID,0,VALID,93.8825,VALID,0,VALID,22.802,VALID,29,VALID,0,
2010-01-06, 03:51:04,VALID,998.702,VALID,0,VALID,93.9283,VALID,0,VALID,22.8232,VALID,29,VALID,0,
2010-01-06, 03:52:04,VALID,998.691,VALID,0,VALID,93.913,VALID,0.112286,VALID,22.8427,VALID,30,VALID,0,
2010-01-06, 03:53:04,VALID,998.706,VALID,0,VALID,93.9435,VALID,0.112286,VALID,22.8215,VALID,31,VALID,0,
2010-01-06, 03:54:04,VALID,998.715,VALID,0,VALID,93.9359,VALID,0,VALID,22.8232,VALID,31,VALID,0,
2010-01-06, 03:55:04,VALID,998.672,VALID,0,VALID,93.9511,VALID,0,VALID,22.8427,VALID,31,VALID,0,
2010-01-06, 03:56:04,VALID,998.704,VALID,0,VALID,93.9359,VALID,0,VALID,22.8427,VALID,31,VALID,0,
2010-01-06, 03:57:04,VALID,998.659,VALID,0,VALID,93.9206,VALID,0,VALID,22.8037,VALID,31,VALID,0,
2010-01-06, 03:58:04,VALID,998.686,VALID,0,VALID,93.9588,VALID,0,VALID,22.8427,VALID,31,VALID,0,